| time (UTC) | temp F | wind direction | speed MPH | gust MPH | rain 1hr in | rain 24hr in | rain mn in | humidity % | barometer mb |
| 20260903021059 | 64 | 338 | 0.0 | 0.0 | 0.00 | 0.00 | 0.00 | 82 | 1017.4 |
| 20260903020601 | 64 | 338 | 0.0 | 0.0 | 0.00 | 0.00 | 0.00 | 82 | 1017.5 |
| 20260903020104 | 64 | 338 | 0.0 | 0.0 | 0.00 | 0.00 | 0.00 | 82 | 1017.5 |
| 20260903015558 | 64 | 338 | 0.0 | 0.0 | 0.00 | 0.00 | 0.00 | 81 | 1017.7 |
| 20260903015057 | 64 | 338 | 0.0 | 0.0 | 0.00 | 0.00 | 0.00 | 80 | 1017.7 |
| 20260903014602 | 64 | 338 | 0.0 | 0.0 | 0.00 | 0.00 | 0.00 | 80 | 1017.6 |
| 20260903014057 | 64 | 338 | 0.0 | 0.0 | 0.00 | 0.00 | 0.00 | 80 | 1017.6 |
| 20260903013555 | 64 | 338 | 0.0 | 0.0 | 0.00 | 0.00 | 0.00 | 81 | 1017.9 |
| 20260903013056 | 64 | 338 | 0.0 | 0.0 | 0.00 | 0.00 | 0.00 | 81 | 1017.9 |
| 20260903012559 | 64 | 338 | 0.0 | 0.0 | 0.00 | 0.00 | 0.00 | 81 | 1017.8 |
| 20260903012056 | 65 | 338 | 0.0 | 0.0 | 0.00 | 0.00 | 0.00 | 80 | 1017.9 |
| 20260903011558 | 65 | 338 | 0.0 | 0.0 | 0.00 | 0.00 | 0.00 | 80 | 1018.0 |
| 20260903011056 | 65 | 338 | 0.0 | 0.0 | 0.00 | 0.00 | 0.00 | 80 | 1018.0 |
| 20260903010555 | 65 | 338 | 0.0 | 0.0 | 0.00 | 0.00 | 0.00 | 80 | 1018.1 |
| 20260903010055 | 65 | 338 | 0.0 | 0.0 | 0.00 | 0.00 | 0.00 | 80 | 1017.9 |
| 20260903005554 | 65 | 338 | 0.0 | 0.0 | 0.00 | 0.00 | 0.00 | 80 | 1017.9 |
| 20260903005053 | 65 | 338 | 0.0 | 0.0 | 0.00 | 0.00 | 0.00 | 80 | 1017.9 |
| 20260903004554 | 65 | 338 | 0.0 | 0.0 | 0.00 | 0.00 | 0.00 | 80 | 1017.7 |
| 20260903004035 | 65 | 338 | 0.0 | 0.0 | 0.00 | 0.00 | 0.00 | 80 | 1017.6 |
| 20260903003530 | 65 | 338 | 0.0 | 0.0 | 0.00 | 0.00 | 0.00 | 80 | 1017.8 |
| 20260903003028 | 65 | 338 | 0.0 | 0.0 | 0.00 | 0.00 | 0.00 | 79 | 1017.8 |
| 20260903002528 | 65 | 338 | 0.0 | 0.0 | 0.00 | 0.00 | 0.00 | 79 | 1017.9 |
| 20260903002027 | 65 | 338 | 0.0 | 0.0 | 0.00 | 0.00 | 0.00 | 79 | 1018.1 |
| 20260903001527 | 65 | 338 | 0.0 | 0.0 | 0.00 | 0.00 | 0.00 | 78 | 1018.1 |
| 20260903001032 | 66 | 338 | 0.0 | 0.0 | 0.00 | 0.00 | 0.00 | 78 | 1018.1 |
| 20260903000525 | 66 | 338 | 0.0 | 0.0 | 0.00 | 0.00 | 0.00 | 78 | 1018.1 |
| 20260903000032 | 66 | 338 | 0.0 | 0.0 | 0.00 | 0.00 | 0.00 | 77 | 1018.3 |
| 20260902235525 | 66 | 338 | 0.0 | 0.0 | 0.00 | 0.00 | 0.00 | 77 | 1018.5 |
| 20260902235023 | 66 | 338 | 0.0 | 0.0 | 0.00 | 0.00 | 0.00 | 77 | 1018.6 |
| 20260902234052 | 67 | 338 | 0.0 | 0.0 | 0.00 | 0.00 | 0.00 | 75 | 1018.8 |
| 20260902233546 | 67 | 338 | 0.0 | 0.0 | 0.00 | 0.00 | 0.00 | 75 | 1018.6 |
| 20260902233046 | 67 | 338 | 0.0 | 0.0 | 0.00 | 0.00 | 0.00 | 74 | 1018.7 |
| 20260902232546 | 68 | 2 | 0.0 | 0.0 | 0.00 | 0.00 | 0.00 | 73 | 1018.7 |
| 20260902232044 | 68 | 2 | 0.0 | 0.0 | 0.00 | 0.00 | 0.00 | 73 | 1018.6 |
| 20260902231544 | 68 | 2 | 0.0 | 0.0 | 0.00 | 0.00 | 0.00 | 72 | 1018.9 |
| 20260902231043 | 68 | 2 | 0.0 | 0.0 | 0.00 | 0.00 | 0.00 | 72 | 1018.9 |
| 20260902230544 | 68 | 2 | 0.0 | 0.0 | 0.00 | 0.00 | 0.00 | 72 | 1018.9 |
| 20260902230042 | 68 | 2 | 0.0 | 0.0 | 0.00 | 0.00 | 0.00 | 72 | 1018.9 |
| 20260902225542 | 69 | 2 | 0.0 | 0.0 | 0.00 | 0.00 | 0.00 | 71 | 1018.8 |
| 20260902225041 | 69 | 2 | 0.0 | 0.0 | 0.00 | 0.00 | 0.00 | 71 | 1018.8 |
| 20260902224544 | 69 | 89 | 0.0 | 0.0 | 0.00 | 0.00 | 0.00 | 71 | 1018.9 |
| 20260902224039 | 69 | 88 | 0.0 | 0.0 | 0.00 | 0.00 | 0.00 | 71 | 1018.8 |
| 20260902223539 | 69 | 243 | 0.0 | 0.0 | 0.00 | 0.00 | 0.00 | 71 | 1018.7 |
| 20260902223042 | 69 | 243 | 0.0 | 0.0 | 0.00 | 0.01 | 0.00 | 71 | 1018.7 |
| 20260902222538 | 70 | 243 | 0.0 | 0.0 | 0.00 | 0.01 | 0.00 | 71 | 1018.7 |
| 20260902222037 | 70 | 243 | 0.0 | 0.0 | 0.00 | 0.01 | 0.00 | 70 | 1018.6 |
| 20260902221541 | 70 | 70 | 0.0 | 0.0 | 0.00 | 0.01 | 0.00 | 70 | 1018.6 |
| 20260902221036 | 70 | 70 | 0.0 | 0.0 | 0.00 | 0.01 | 0.00 | 69 | 1018.6 |
| 20260902220536 | 70 | 70 | 0.0 | 0.0 | 0.00 | 0.01 | 0.00 | 68 | 1018.6 |
| 20260902220044 | 71 | 70 | 0.0 | 0.0 | 0.00 | 0.01 | 0.00 | 68 | 1018.5 |
| 20260902215536 | 71 | 70 | 0.0 | 0.0 | 0.00 | 0.01 | 0.00 | 69 | 1018.4 |
| 20260902215037 | 71 | 79 | 0.0 | 0.0 | 0.00 | 0.01 | 0.00 | 68 | 1018.1 |
| 20260902214534 | 72 | 62 | 0.0 | 0.0 | 0.00 | 0.01 | 0.00 | 69 | 1018.2 |
| 20260902214032 | 72 | 62 | 0.0 | 0.0 | 0.00 | 0.01 | 0.00 | 68 | 1018.2 |
| 20260902213533 | 72 | 69 | 0.0 | 0.0 | 0.00 | 0.01 | 0.00 | 67 | 1018.1 |
| 20260902213030 | 72 | 359 | 0.0 | 0.0 | 0.00 | 0.05 | 0.00 | 69 | 1018.1 |
| 20260902212531 | 72 | 23 | 0.0 | 0.0 | 0.00 | 0.05 | 0.00 | 69 | 1018.1 |
| 20260902212031 | 72 | 1 | 0.0 | 0.0 | 0.00 | 0.05 | 0.00 | 68 | 1018.1 |
| 20260902211530 | 72 | 353 | 0.0 | 0.0 | 0.00 | 0.05 | 0.00 | 68 | 1018.3 |
| 20260902211029 | 72 | 353 | 0.0 | 0.0 | 0.00 | 0.05 | 0.00 | 68 | 1018.4 |
| 20260902210529 | 73 | 354 | 0.0 | 0.0 | 0.00 | 0.05 | 0.00 | 68 | 1018.6 |
| 20260902210049 | 73 | 330 | 0.0 | 0.0 | 0.00 | 0.05 | 0.00 | 69 | 1018.6 |
| 20260902205529 | 73 | 77 | 0.0 | 0.0 | 0.00 | 0.05 | 0.00 | 67 | 1018.7 |
| 20260902205029 | 73 | 77 | 0.0 | 0.0 | 0.00 | 0.05 | 0.00 | 66 | 1018.6 |
| 20260902204533 | 74 | 86 | 0.0 | 0.0 | 0.00 | 0.05 | 0.00 | 65 | 1018.6 |
| 20260902204028 | 74 | 86 | 0.0 | 0.0 | 0.00 | 0.05 | 0.00 | 65 | 1018.6 |
| 20260902203529 | 74 | 74 | 0.0 | 0.0 | 0.00 | 0.05 | 0.00 | 67 | 1018.6 |
| 20260902203030 | 74 | 74 | 0.0 | 0.0 | 0.00 | 0.11 | 0.00 | 65 | 1018.6 |
| 20260902202529 | 74 | 74 | 0.0 | 0.0 | 0.00 | 0.11 | 0.00 | 65 | 1018.6 |
| 20260902202031 | 75 | 76 | 0.0 | 0.0 | 0.00 | 0.11 | 0.00 | 63 | 1018.5 |
| 20260902201532 | 75 | 20 | 0.0 | 0.0 | 0.00 | 0.11 | 0.00 | 62 | 1018.4 |
| 20260902201028 | 76 | 62 | 0.0 | 0.0 | 0.00 | 0.11 | 0.00 | 62 | 1018.3 |
| 20260902200528 | 76 | 86 | 0.0 | 1.0 | 0.00 | 0.11 | 0.00 | 63 | 1018.4 |
| 20260902200028 | 77 | 91 | 0.0 | 1.0 | 0.00 | 0.11 | 0.00 | 61 | 1018.4 |
| 20260902195527 | 77 | 335 | 0.0 | 0.0 | 0.00 | 0.11 | 0.00 | 60 | 1018.4 |
| 20260902195026 | 78 | 50 | 0.0 | 0.0 | 0.00 | 0.11 | 0.00 | 62 | 1018.6 |
| 20260902194532 | 79 | 178 | 0.0 | 0.0 | 0.00 | 0.11 | 0.00 | 58 | 1018.7 |
| 20260902194028 | 79 | 194 | 0.0 | 0.0 | 0.00 | 0.11 | 0.00 | 58 | 1018.7 |
| 20260902193628 | 79 | 60 | 0.0 | 0.0 | 0.00 | 0.11 | 0.00 | 58 | 1018.7 |
| 20260902193028 | 80 | 347 | 0.0 | 0.0 | 0.00 | 0.11 | 0.00 | 58 | 1018.8 |
| 20260902192527 | 80 | 252 | 0.0 | 0.0 | 0.00 | 0.11 | 0.00 | 56 | 1018.8 |
| 20260902192026 | 81 | 33 | 0.0 | 0.0 | 0.00 | 0.11 | 0.00 | 58 | 1018.8 |
| 20260902191526 | 80 | 124 | 0.0 | 0.0 | 0.00 | 0.11 | 0.00 | 56 | 1018.8 |
| 20260902191024 | 80 | 42 | 0.0 | 0.0 | 0.00 | 0.11 | 0.00 | 58 | 1018.8 |
| 20260902190524 | 79 | 57 | 0.0 | 1.0 | 0.00 | 0.11 | 0.00 | 58 | 1018.9 |
| 20260902190034 | 79 | 75 | 0.0 | 1.0 | 0.00 | 0.11 | 0.00 | 57 | 1018.9 |
| 20260902185524 | 80 | 13 | 0.0 | 0.0 | 0.00 | 0.11 | 0.00 | 58 | 1018.8 |
| 20260902185023 | 79 | 352 | 0.0 | 0.0 | 0.00 | 0.11 | 0.00 | 60 | 1018.9 |
| 20260902184527 | 79 | 38 | 0.0 | 0.0 | 0.00 | 0.11 | 0.00 | 60 | 1018.9 |
| 20260902184025 | 79 | 39 | 0.0 | 0.0 | 0.00 | 0.11 | 0.00 | 59 | 1018.9 |
| 20260902183520 | 79 | 78 | 0.0 | 0.0 | 0.00 | 0.11 | 0.00 | 59 | 1018.9 |
| 20260902183021 | 79 | 28 | 0.0 | 0.0 | 0.00 | 0.32 | 0.00 | 58 | 1018.8 |
| 20260902182523 | 79 | 11 | 0.0 | 0.0 | 0.00 | 0.32 | 0.00 | 58 | 1018.7 |
| 20260902182019 | 79 | 316 | 0.0 | 0.0 | 0.00 | 0.32 | 0.00 | 59 | 1018.6 |
| 20260902181519 | 78 | 209 | 0.0 | 0.0 | 0.00 | 0.32 | 0.00 | 61 | 1018.8 |
| 20260902181023 | 79 | 44 | 0.0 | 0.0 | 0.00 | 0.32 | 0.00 | 58 | 1018.6 |
| 20260902180517 | 79 | 76 | 0.0 | 0.0 | 0.00 | 0.32 | 0.00 | 61 | 1018.6 |
| 20260902180016 | 79 | 323 | 0.0 | 0.0 | 0.00 | 0.32 | 0.00 | 59 | 1018.8 |
| 20260902175516 | 78 | 259 | 0.0 | 0.0 | 0.00 | 0.32 | 0.00 | 60 | 1018.8 |
| 20260902175016 | 78 | 313 | 0.0 | 0.0 | 0.00 | 0.32 | 0.00 | 61 | 1018.9 |
| 20260902174516 | 79 | 18 | 0.0 | 0.0 | 0.00 | 0.32 | 0.00 | 62 | 1018.8 |
| 20260902174013 | 79 | 18 | 0.0 | 0.0 | 0.00 | 0.32 | 0.00 | 62 | 1018.8 |
| 20260902173513 | 79 | 210 | 0.0 | 0.0 | 0.00 | 0.32 | 0.00 | 59 | 1018.9 |
| 20260902173014 | 79 | 209 | 0.0 | 0.0 | 0.00 | 0.34 | 0.00 | 61 | 1018.9 |
| 20260902172515 | 78 | 191 | 0.0 | 0.0 | 0.00 | 0.34 | 0.00 | 61 | 1019.0 |
| 20260902172014 | 78 | 253 | 0.0 | 0.0 | 0.00 | 0.34 | 0.00 | 63 | 1018.9 |
| 20260902171510 | 78 | 128 | 0.0 | 0.0 | 0.00 | 0.34 | 0.00 | 60 | 1018.9 |
| 20260902171009 | 78 | 193 | 0.0 | 0.0 | 0.00 | 0.34 | 0.00 | 62 | 1019.1 |
| 20260902170508 | 78 | 214 | 0.0 | 0.0 | 0.00 | 0.34 | 0.00 | 63 | 1019.2 |
| 20260902170009 | 78 | 214 | 0.0 | 0.0 | 0.00 | 0.34 | 0.00 | 64 | 1019.2 |
| 20260902165507 | 78 | 344 | 0.0 | 0.0 | 0.00 | 0.34 | 0.00 | 64 | 1019.2 |
| 20260902165008 | 77 | 205 | 0.0 | 0.0 | 0.00 | 0.34 | 0.00 | 65 | 1019.2 |
| 20260902164506 | 76 | 5 | 0.0 | 0.0 | 0.00 | 0.34 | 0.00 | 67 | 1019.2 |
| 20260902164004 | 75 | 5 | 0.0 | 0.0 | 0.00 | 0.34 | 0.00 | 67 | 1019.3 |
| 20260902163504 | 75 | 6 | 0.0 | 0.0 | 0.00 | 0.34 | 0.00 | 65 | 1019.3 |
| 20260902163003 | 75 | 4 | 0.0 | 0.0 | 0.00 | 0.43 | 0.00 | 65 | 1019.3 |
| 20260902162502 | 76 | 346 | 0.0 | 0.0 | 0.00 | 0.43 | 0.00 | 68 | 1019.2 |
| 20260902162104 | 75 | 237 | 0.0 | 0.0 | 0.00 | 0.43 | 0.00 | 69 | 1019.3 |
| 20260902161603 | 74 | 348 | 0.0 | 0.0 | 0.00 | 0.43 | 0.00 | 70 | 1019.5 |
| 20260902161059 | 74 | 7 | 0.0 | 0.0 | 0.00 | 0.43 | 0.00 | 70 | 1019.4 |
| 20260902160558 | 74 | 7 | 0.0 | 0.0 | 0.00 | 0.43 | 0.00 | 67 | 1019.6 |
| 20260902160056 | 74 | 339 | 0.0 | 0.0 | 0.00 | 0.43 | 0.00 | 70 | 1019.7 |
| 20260902155555 | 73 | 212 | 0.0 | 0.0 | 0.00 | 0.43 | 0.00 | 72 | 1019.8 |
| 20260902155054 | 72 | 137 | 0.0 | 0.0 | 0.00 | 0.43 | 0.00 | 70 | 1019.9 |
| 20260902154554 | 72 | 139 | 0.0 | 0.0 | 0.00 | 0.43 | 0.00 | 73 | 1019.9 |
| 20260902153555 | 72 | 134 | 0.0 | 0.0 | 0.00 | 0.43 | 0.00 | 73 | 1019.9 |
| 20260902153053 | 71 | 182 | 0.0 | 0.0 | 0.00 | 0.59 | 0.43 | 74 | 1019.9 |
| 20260902152552 | 71 | 220 | 0.0 | 0.0 | 0.00 | 0.59 | 0.43 | 73 | 1020.0 |
| 20260902152051 | 71 | 221 | 0.0 | 0.0 | 0.00 | 0.59 | 0.43 | 72 | 1020.1 |
| 20260902151558 | 70 | 1 | 0.0 | 0.0 | 0.00 | 0.59 | 0.43 | 77 | 1020.0 |
| 20260902151049 | 69 | 345 | 0.0 | 0.0 | 0.00 | 0.59 | 0.43 | 78 | 1019.8 |
| 20260902150548 | 69 | 354 | 0.0 | 0.0 | 0.00 | 0.59 | 0.43 | 76 | 1019.8 |
| 20260902150046 | 69 | 75 | 0.0 | 0.0 | 0.00 | 0.59 | 0.43 | 80 | 1020.0 |
| 20260902145544 | 68 | 355 | 0.0 | 0.0 | 0.00 | 0.59 | 0.43 | 80 | 1020.1 |
| 20260902145044 | 68 | 358 | 0.0 | 0.0 | 0.00 | 0.59 | 0.43 | 85 | 1020.0 |
| 20260902144556 | 67 | 307 | 0.0 | 0.0 | 0.00 | 0.59 | 0.43 | 88 | 1019.9 |
| 20260902143540 | 67 | 357 | 0.0 | 0.0 | 0.00 | 0.59 | 0.43 | 90 | 1019.7 |
| 20260902143039 | 67 | 357 | 0.0 | 0.0 | 0.00 | 0.75 | 0.43 | 92 | 1019.9 |
| 20260902142537 | 66 | 357 | 0.0 | 0.0 | 0.00 | 0.75 | 0.43 | 92 | 1019.9 |
| 20260902142037 | 66 | 349 | 0.0 | 0.0 | 0.00 | 0.75 | 0.43 | 94 | 1019.7 |
| 20260902141539 | 65 | 356 | 0.0 | 0.0 | 0.00 | 0.75 | 0.43 | 95 | 1019.6 |
| 20260902141037 | 65 | 356 | 0.0 | 0.0 | 0.00 | 0.75 | 0.43 | 96 | 1019.5 |
| 20260902140534 | 65 | 347 | 0.0 | 0.0 | 0.00 | 0.75 | 0.43 | 97 | 1019.5 |
| 20260902140133 | 65 | 347 | 0.0 | 0.0 | 0.00 | 0.75 | 0.43 | 97 | 1019.5 |
| 20260902135532 | 65 | 348 | 0.0 | 0.0 | 0.00 | 0.75 | 0.43 | 97 | 1019.3 |
| 20260902135033 | 65 | 3 | 0.0 | 0.0 | 0.00 | 0.75 | 0.43 | 97 | 1019.4 |
| 20260902134535 | 64 | 323 | 0.0 | 0.0 | 0.00 | 0.75 | 0.43 | 97 | 1019.3 |
| 20260902133532 | 64 | 358 | 0.0 | 0.0 | 0.00 | 0.75 | 0.43 | 98 | 1019.1 |
| 20260902133032 | 65 | 351 | 0.0 | 0.0 | 0.00 | 0.80 | 0.43 | 98 | 1019.1 |
| 20260902132532 | 64 | 347 | 0.0 | 0.0 | 0.00 | 0.80 | 0.43 | 98 | 1019.0 |
| 20260902132030 | 64 | 340 | 0.0 | 0.0 | 0.00 | 0.80 | 0.43 | 98 | 1018.9 |
| 20260902131530 | 64 | 341 | 0.0 | 0.0 | 0.00 | 0.80 | 0.43 | 98 | 1019.1 |
| 20260902131032 | 64 | 248 | 0.0 | 0.0 | 0.00 | 0.80 | 0.43 | 98 | 1019.2 |
| 20260902130530 | 64 | 328 | 0.0 | 0.0 | 0.00 | 0.80 | 0.43 | 98 | 1019.1 |
| 20260902130036 | 64 | 323 | 0.0 | 0.0 | 0.00 | 0.80 | 0.43 | 98 | 1019.1 |
| 20260902125533 | 64 | 302 | 0.0 | 0.0 | 0.00 | 0.80 | 0.43 | 98 | 1019.3 |
| 20260902125029 | 64 | 302 | 0.0 | 0.0 | 0.00 | 0.80 | 0.43 | 98 | 1019.4 |
| 20260902124532 | 63 | 321 | 0.0 | 0.0 | 0.00 | 0.80 | 0.43 | 98 | 1019.3 |
| 20260902123534 | 63 | 322 | 0.0 | 0.0 | 0.00 | 0.80 | 0.43 | 98 | 1019.4 |
| 20260902123035 | 63 | 321 | 0.0 | 0.0 | 0.00 | 0.80 | 0.43 | 98 | 1019.4 |
| 20260902122534 | 63 | 321 | 0.0 | 0.0 | 0.00 | 0.80 | 0.43 | 98 | 1019.3 |
| 20260902122034 | 63 | 321 | 0.0 | 0.0 | 0.00 | 0.80 | 0.43 | 98 | 1019.4 |
| 20260902121535 | 63 | 321 | 0.0 | 0.0 | 0.00 | 0.80 | 0.43 | 98 | 1019.4 |
| 20260902121034 | 63 | 322 | 0.0 | 0.0 | 0.00 | 0.80 | 0.43 | 98 | 1019.5 |
| 20260902120533 | 62 | 321 | 0.0 | 0.0 | 0.00 | 0.80 | 0.43 | 98 | 1019.6 |
| 20260902120032 | 62 | 321 | 0.0 | 0.0 | 0.00 | 0.80 | 0.43 | 98 | 1019.6 |
| 20260902115533 | 62 | 321 | 0.0 | 0.0 | 0.00 | 0.80 | 0.43 | 98 | 1019.6 |
| 20260902115032 | 62 | 321 | 0.0 | 0.0 | 0.00 | 0.80 | 0.43 | 98 | 1019.7 |
| 20260902114535 | 61 | 321 | 0.0 | 0.0 | 0.00 | 0.80 | 0.43 | 98 | 1019.7 |
| 20260902113537 | 61 | 321 | 0.0 | 0.0 | 0.00 | 0.80 | 0.43 | 98 | 1019.7 |
| 20260902113044 | 61 | 321 | 0.0 | 0.0 | 0.00 | 0.80 | 0.43 | 98 | 1019.7 |
| 20260902112536 | 61 | 321 | 0.0 | 0.0 | 0.00 | 0.80 | 0.43 | 98 | 1019.6 |
| 20260902112035 | 61 | 321 | 0.0 | 0.0 | 0.00 | 0.80 | 0.43 | 98 | 1019.5 |
| 20260902111542 | 60 | 321 | 0.0 | 0.0 | 0.00 | 0.80 | 0.43 | 98 | 1019.5 |
| 20260902111034 | 60 | 321 | 0.0 | 0.0 | 0.00 | 0.80 | 0.43 | 98 | 1019.4 |
| 20260902110534 | 60 | 321 | 0.0 | 0.0 | 0.00 | 0.80 | 0.43 | 98 | 1019.5 |
| 20260902110033 | 60 | 321 | 0.0 | 0.0 | 0.00 | 0.80 | 0.43 | 98 | 1019.5 |
| 20260902105533 | 60 | 321 | 0.0 | 0.0 | 0.00 | 0.80 | 0.43 | 98 | 1019.3 |
| 20260902105033 | 59 | 321 | 0.0 | 0.0 | 0.00 | 0.80 | 0.43 | 98 | 1019.2 |
| 20260902104539 | 59 | 321 | 0.0 | 0.0 | 0.00 | 0.80 | 0.43 | 98 | 1019.2 |
| 20260902103524 | 59 | 321 | 0.0 | 0.0 | 0.00 | 0.80 | 0.43 | 98 | 1019.1 |
| 20260902103021 | 59 | 321 | 0.0 | 0.0 | 0.00 | 0.80 | 0.43 | 98 | 1019.0 |
| 20260902102520 | 59 | 321 | 0.0 | 0.0 | 0.00 | 0.80 | 0.43 | 98 | 1019.0 |
| 20260902102020 | 59 | 321 | 0.0 | 0.0 | 0.00 | 0.80 | 0.43 | 98 | 1018.9 |
| 20260902101528 | 59 | 321 | 0.0 | 0.0 | 0.00 | 0.80 | 0.43 | 98 | 1018.8 |
| 20260902101019 | 59 | 321 | 0.0 | 0.0 | 0.00 | 0.80 | 0.43 | 98 | 1018.7 |
| 20260902100520 | 59 | 321 | 0.0 | 0.0 | 0.00 | 0.80 | 0.43 | 98 | 1018.8 |
| 20260902100020 | 59 | 321 | 0.0 | 0.0 | 0.00 | 0.80 | 0.43 | 98 | 1018.7 |
| 20260902095520 | 59 | 321 | 0.0 | 0.0 | 0.00 | 0.80 | 0.43 | 98 | 1018.6 |
| 20260902095018 | 59 | 321 | 0.0 | 0.0 | 0.00 | 0.80 | 0.43 | 98 | 1018.7 |
| 20260902094518 | 59 | 321 | 0.0 | 0.0 | 0.00 | 0.80 | 0.43 | 98 | 1018.5 |
| 20260902093517 | 59 | 321 | 0.0 | 0.0 | 0.00 | 0.80 | 0.43 | 98 | 1018.6 |
| 20260902093023 | 59 | 321 | 0.0 | 0.0 | 0.00 | 0.80 | 0.43 | 98 | 1018.5 |
| 20260902092522 | 59 | 321 | 0.0 | 0.0 | 0.00 | 0.80 | 0.43 | 98 | 1018.4 |
| 20260902092016 | 59 | 321 | 0.0 | 0.0 | 0.00 | 0.80 | 0.43 | 98 | 1018.5 |
| 20260902091516 | 59 | 321 | 0.0 | 0.0 | 0.00 | 0.80 | 0.43 | 98 | 1018.5 |
| 20260902091016 | 59 | 321 | 0.0 | 0.0 | 0.00 | 0.80 | 0.43 | 98 | 1018.3 |
| 20260902090516 | 59 | 321 | 0.0 | 0.0 | 0.00 | 0.80 | 0.43 | 98 | 1018.3 |
| 20260902090017 | 59 | 321 | 0.0 | 0.0 | 0.00 | 0.80 | 0.43 | 98 | 1018.2 |
| 20260902085516 | 59 | 321 | 0.0 | 0.0 | 0.00 | 0.80 | 0.43 | 98 | 1018.3 |
| 20260902085015 | 59 | 321 | 0.0 | 0.0 | 0.00 | 0.80 | 0.43 | 98 | 1018.4 |
| 20260902084515 | 59 | 321 | 0.0 | 0.0 | 0.00 | 0.80 | 0.43 | 98 | 1018.4 |
| 20260902083517 | 59 | 321 | 0.0 | 0.0 | 0.00 | 0.80 | 0.43 | 98 | 1018.4 |
| 20260902083016 | 59 | 321 | 0.0 | 0.0 | 0.00 | 0.80 | 0.43 | 98 | 1018.4 |
| 20260902082518 | 59 | 321 | 0.0 | 0.0 | 0.00 | 0.80 | 0.43 | 98 | 1018.4 |
| 20260902082020 | 59 | 321 | 0.0 | 0.0 | 0.00 | 0.80 | 0.43 | 97 | 1018.3 |
| 20260902081515 | 59 | 321 | 0.0 | 0.0 | 0.00 | 0.80 | 0.43 | 97 | 1018.2 |
| 20260902081014 | 59 | 321 | 0.0 | 0.0 | 0.00 | 0.80 | 0.43 | 97 | 1018.3 |
| 20260902080514 | 59 | 321 | 0.0 | 0.0 | 0.00 | 0.80 | 0.43 | 97 | 1018.2 |
| 20260902080014 | 59 | 321 | 0.0 | 0.0 | 0.00 | 0.80 | 0.43 | 97 | 1018.2 |
| 20260902075514 | 60 | 321 | 0.0 | 0.0 | 0.00 | 0.80 | 0.43 | 98 | 1018.3 |
| 20260902075013 | 60 | 321 | 0.0 | 0.0 | 0.00 | 0.80 | 0.43 | 98 | 1018.4 |
| 20260902074513 | 60 | 321 | 0.0 | 0.0 | 0.00 | 0.80 | 0.43 | 98 | 1018.3 |
| 20260902073510 | 60 | 321 | 0.0 | 0.0 | 0.00 | 0.80 | 0.43 | 98 | 1018.4 |
| 20260902073010 | 60 | 321 | 0.0 | 0.0 | 0.00 | 0.80 | 0.43 | 98 | 1018.4 |
| 20260902072510 | 60 | 321 | 0.0 | 0.0 | 0.00 | 0.80 | 0.43 | 98 | 1018.3 |
| 20260902072013 | 60 | 321 | 0.0 | 0.0 | 0.00 | 0.80 | 0.43 | 98 | 1018.3 |
| 20260902071509 | 60 | 321 | 0.0 | 0.0 | 0.00 | 0.80 | 0.43 | 98 | 1018.1 |
| 20260902071009 | 60 | 321 | 0.0 | 0.0 | 0.00 | 0.80 | 0.43 | 98 | 1018.2 |
| 20260902070508 | 60 | 227 | 0.0 | 0.0 | 0.00 | 0.80 | 0.43 | 98 | 1018.1 |
| 20260902070008 | 60 | 227 | 0.0 | 0.0 | 0.00 | 0.80 | 0.43 | 98 | 1018.0 |
| 20260902065512 | 60 | 227 | 0.0 | 0.0 | 0.00 | 0.80 | 0.43 | 98 | 1018.1 |
| 20260902065009 | 60 | 227 | 0.0 | 0.0 | 0.00 | 0.80 | 0.43 | 98 | 1018.1 |
| 20260902064507 | 60 | 227 | 0.0 | 0.0 | 0.00 | 0.80 | 0.43 | 98 | 1017.9 |
| 20260902063510 | 60 | 227 | 0.0 | 0.0 | 0.00 | 0.80 | 0.43 | 98 | 1018.0 |
| 20260902063007 | 60 | 227 | 0.0 | 0.0 | 0.00 | 0.80 | 0.43 | 98 | 1017.9 |
| 20260902062509 | 60 | 227 | 0.0 | 0.0 | 0.00 | 0.80 | 0.43 | 98 | 1018.1 |
| 20260902062006 | 60 | 227 | 0.0 | 0.0 | 0.00 | 0.80 | 0.43 | 98 | 1017.9 |
| 20260902061509 | 60 | 227 | 0.0 | 0.0 | 0.00 | 0.80 | 0.43 | 98 | 1017.9 |
| 20260902061006 | 60 | 227 | 0.0 | 0.0 | 0.00 | 0.80 | 0.43 | 98 | 1017.9 |
| 20260902060505 | 60 | 227 | 0.0 | 0.0 | 0.00 | 0.80 | 0.43 | 98 | 1017.9 |
| 20260902060006 | 60 | 227 | 0.0 | 0.0 | 0.00 | 0.80 | 0.43 | 97 | 1017.9 |
| 20260902055506 | 60 | 227 | 0.0 | 0.0 | 0.00 | 0.80 | 0.43 | 98 | 1017.9 |
| 20260902055005 | 60 | 227 | 0.0 | 0.0 | 0.00 | 0.80 | 0.43 | 98 | 1017.9 |
| 20260902054505 | 60 | 227 | 0.0 | 0.0 | 0.00 | 0.80 | 0.43 | 98 | 1017.8 |
| 20260902053505 | 60 | 227 | 0.0 | 0.0 | 0.00 | 0.80 | 0.43 | 98 | 1017.8 |
| 20260902053007 | 60 | 227 | 0.0 | 0.0 | 0.00 | 0.80 | 0.43 | 98 | 1017.7 |
| 20260902052511 | 60 | 226 | 0.0 | 0.0 | 0.00 | 0.80 | 0.43 | 98 | 1017.8 |
| 20260902052006 | 60 | 225 | 0.0 | 0.0 | 0.00 | 0.80 | 0.43 | 98 | 1017.8 |
| 20260902051505 | 60 | 225 | 0.0 | 0.0 | 0.00 | 0.80 | 0.43 | 98 | 1017.7 |
| 20260902051008 | 60 | 225 | 0.0 | 0.0 | 0.00 | 0.80 | 0.43 | 98 | 1017.6 |
| 20260902050507 | 60 | 225 | 0.0 | 0.0 | 0.00 | 0.80 | 0.43 | 98 | 1017.4 |
| 20260902050009 | 60 | 225 | 0.0 | 0.0 | 0.00 | 0.80 | 0.43 | 98 | 1017.6 |
| 20260902045503 | 60 | 225 | 0.0 | 0.0 | 0.00 | 0.80 | 0.43 | 98 | 1017.7 |
| 20260902045003 | 60 | 225 | 0.0 | 0.0 | 0.00 | 0.80 | 0.43 | 97 | 1017.7 |
| 20260902044504 | 60 | 225 | 0.0 | 0.0 | 0.00 | 0.80 | 0.43 | 97 | 1017.7 |
| 20260902043501 | 60 | 225 | 0.0 | 0.0 | 0.00 | 0.80 | 0.43 | 97 | 1017.7 |
| 20260902043002 | 60 | 225 | 0.0 | 0.0 | 0.00 | 0.80 | 0.43 | 97 | 1017.7 |
| 20260902042501 | 60 | 225 | 0.0 | 0.0 | 0.00 | 0.80 | 0.43 | 97 | 1017.8 |
| 20260902042100 | 60 | 225 | 0.0 | 0.0 | 0.00 | 0.80 | 0.43 | 97 | 1017.6 |
| 20260902041601 | 60 | 225 | 0.0 | 0.0 | 0.00 | 0.80 | 0.43 | 97 | 1017.4 |
| 20260902041059 | 60 | 225 | 0.0 | 0.0 | 0.00 | 0.80 | 0.43 | 97 | 1017.4 |
| 20260902040559 | 60 | 225 | 0.0 | 0.0 | 0.00 | 0.80 | 0.43 | 97 | 1017.3 |
| 20260902040059 | 60 | 225 | 0.0 | 0.0 | 0.00 | 0.80 | 0.43 | 97 | 1017.3 |
| 20260902035558 | 60 | 225 | 0.0 | 0.0 | 0.00 | 0.80 | 0.43 | 97 | 1017.2 |
| 20260902035058 | 60 | 225 | 0.0 | 0.0 | 0.00 | 0.80 | 0.43 | 97 | 1017.2 |
| 20260902034603 | 60 | 225 | 0.0 | 0.0 | 0.00 | 0.80 | 0.43 | 97 | 1017.2 |
| 20260902033500 | 60 | 225 | 0.0 | 0.0 | 0.00 | 0.80 | 0.43 | 97 | 1017.1 |
| 20260902033001 | 60 | 225 | 0.0 | 0.0 | 0.00 | 0.80 | 0.43 | 97 | 1017.2 |
| 20260902032601 | 61 | 225 | 0.0 | 0.0 | 0.00 | 0.80 | 0.43 | 97 | 1017.1 |
| 20260902032100 | 60 | 225 | 0.0 | 0.0 | 0.00 | 0.80 | 0.43 | 97 | 1017.1 |
| 20260902031600 | 60 | 225 | 0.0 | 0.0 | 0.00 | 0.80 | 0.43 | 97 | 1017.1 |
| 20260902031100 | 61 | 225 | 0.0 | 0.0 | 0.00 | 0.80 | 0.43 | 97 | 1017.1 |
| 20260902030602 | 60 | 225 | 0.0 | 0.0 | 0.00 | 0.80 | 0.43 | 97 | 1017.2 |
| 20260902030058 | 61 | 225 | 0.0 | 0.0 | 0.00 | 0.80 | 0.43 | 97 | 1017.1 |
| 20260902025558 | 60 | 225 | 0.0 | 0.0 | 0.00 | 0.80 | 0.43 | 97 | 1017.1 |
| 20260902025058 | 60 | 225 | 0.0 | 0.0 | 0.00 | 0.80 | 0.43 | 97 | 1017.1 |
| 20260902024607 | 60 | 225 | 0.0 | 0.0 | 0.00 | 0.80 | 0.43 | 97 | 1017.0 |
| 20260902023555 | 60 | 225 | 0.0 | 0.0 | 0.00 | 0.80 | 0.43 | 97 | 1016.9 |
| 20260902023055 | 60 | 225 | 0.0 | 0.0 | 0.00 | 0.80 | 0.43 | 97 | 1016.9 |
| 20260902022557 | 60 | 225 | 0.0 | 0.0 | 0.00 | 0.80 | 0.43 | 97 | 1017.0 |
| 20260902022054 | 60 | 225 | 0.0 | 0.0 | 0.00 | 0.80 | 0.43 | 97 | 1017.0 |
| 20260902021611 | 60 | 225 | 0.0 | 0.0 | 0.00 | 0.80 | 0.43 | 97 | 1016.9 |